EZY575B EGPH-EGAC

Flight info

Callsign EZY575B
Flight time 0h 57m
Altitude 16000
Route GOSAM P600 BLACA DCT MAGEE
Aircraft A320/M-SDE2E3FGHIJ1RWXYZ/LB1

Departure

Time 2026-05-08 18:17
Airport Edinburgh Airport (EGPH)

Arrival

Time 2026-05-08 19:14
Airport George Best Belfast City Airport (EGAC)
Time Latitude Longitude Altitude Speed Heading
2026-05-08 17:27 55.94702 -3.36617 114 ft 0 kts 89°
2026-05-08 18:10 55.94703 -3.36655 115 ft 4 kts 104°
2026-05-08 18:11 55.94707 -3.36697 113 ft 3 kts 65°
2026-05-08 18:11 55.94695 -3.36732 114 ft 4 kts 36°
2026-05-08 18:11 55.94673 -3.36741 114 ft 4 kts 347°
2026-05-08 18:11 55.94654 -3.36735 113 ft 0 kts 359°
2026-05-08 18:13 55.94656 -3.36735 114 ft 3 kts 359°
2026-05-08 18:13 55.94703 -3.36737 114 ft 7 kts 359°
2026-05-08 18:14 55.94760 -3.36753 115 ft 9 kts 330°
2026-05-08 18:14 55.94821 -3.36776 116 ft 9 kts
2026-05-08 18:14 55.94900 -3.36811 113 ft 13 kts 328°
2026-05-08 18:14 55.94969 -3.36769 114 ft 12 kts 58°
2026-05-08 18:15 55.95036 -3.36571 113 ft 22 kts 58°
2026-05-08 18:15 55.95113 -3.36343 114 ft 21 kts 59°
2026-05-08 18:15 55.95190 -3.36117 115 ft 21 kts 59°
2026-05-08 18:15 55.95274 -3.35870 115 ft 24 kts 58°
2026-05-08 18:16 55.95363 -3.35603 114 ft 26 kts 61°
2026-05-08 18:16 55.95450 -3.35403 115 ft 14 kts 10°
2026-05-08 18:16 55.95542 -3.35488 113 ft 18 kts 331°
2026-05-08 18:16 55.95534 -3.35672 113 ft 22 kts 238°
2026-05-08 18:17 55.95322 -3.36298 109 ft 95 kts 238°
2026-05-08 18:17 55.94881 -3.37611 113 ft 149 kts 239°
2026-05-08 18:17 55.94307 -3.39321 559 ft 162 kts 240°
2026-05-08 18:17 55.93716 -3.41071 1221 ft 170 kts 242°
2026-05-08 18:18 55.93055 -3.43010 1644 ft 196 kts 242°
2026-05-08 18:18 55.92300 -3.45210 2119 ft 220 kts 240°
2026-05-08 18:18 55.91450 -3.47658 2670 ft 243 kts 240°
2026-05-08 18:18 55.90596 -3.50320 3490 ft 250 kts 251°
2026-05-08 18:19 55.90191 -3.53340 4452 ft 252 kts 260°
2026-05-08 18:19 55.89873 -3.56425 5441 ft 255 kts 259°
2026-05-08 18:19 55.89551 -3.59681 5891 ft 281 kts 260°
2026-05-08 18:19 55.89196 -3.63318 6008 ft 315 kts 259°
2026-05-08 18:20 55.88799 -3.67351 6008 ft 340 kts 259°
2026-05-08 18:20 55.88400 -3.71368 6043 ft 316 kts 259°
2026-05-08 18:20 55.88031 -3.75047 6245 ft 288 kts 259°
2026-05-08 18:20 55.87696 -3.78377 6607 ft 259 kts 259°
2026-05-08 18:21 55.87381 -3.81538 7178 ft 261 kts 259°
2026-05-08 18:21 55.87065 -3.84731 8151 ft 263 kts 258°
2026-05-08 18:21 55.86747 -3.87952 9066 ft 266 kts 258°
2026-05-08 18:21 55.86423 -3.91208 9981 ft 269 kts 257°
2026-05-08 18:22 55.86085 -3.94555 10521 ft 285 kts 258°
2026-05-08 18:22 55.85719 -3.98148 10928 ft 303 kts 258°
2026-05-08 18:22 55.85340 -4.01884 11652 ft 309 kts 258°
2026-05-08 18:22 55.84958 -4.05665 12449 ft 312 kts 258°
2026-05-08 18:23 55.84530 -4.09474 13250 ft 315 kts 252°
2026-05-08 18:23 55.83628 -4.13016 14014 ft 316 kts 236°
2026-05-08 18:23 55.82172 -4.15961 14687 ft 320 kts 220°
2026-05-08 18:23 55.80351 -4.18262 15355 ft 323 kts 215°
2026-05-08 18:24 55.78487 -4.20524 15935 ft 326 kts 216°
2026-05-08 18:24 55.76618 -4.22819 16101 ft 326 kts 216°
2026-05-08 18:24 55.74799 -4.25078 16134 ft 312 kts 216°
2026-05-08 18:24 55.73042 -4.27267 16137 ft 307 kts 216°
2026-05-08 18:25 55.71298 -4.29437 16136 ft 306 kts 216°
2026-05-08 18:25 55.69581 -4.31573 16131 ft 305 kts 216°
2026-05-08 18:25 55.67826 -4.33751 16137 ft 304 kts 216°
2026-05-08 18:25 55.66093 -4.35894 16139 ft 304 kts 216°
2026-05-08 18:26 55.64378 -4.38013 16137 ft 304 kts 216°
2026-05-08 18:26 55.62641 -4.40157 16137 ft 304 kts 216°
2026-05-08 18:26 55.60905 -4.42296 16135 ft 304 kts 216°
2026-05-08 18:26 55.59167 -4.44437 16134 ft 304 kts 216°
2026-05-08 18:27 55.57436 -4.46569 16146 ft 304 kts 216°
2026-05-08 18:27 55.56261 -4.48016 16140 ft 304 kts 216°
2026-05-08 18:27 55.53953 -4.50850 16132 ft 306 kts 216°
2026-05-08 18:27 55.52206 -4.52987 16131 ft 306 kts 216°
2026-05-08 18:28 55.50453 -4.55128 16133 ft 307 kts 216°
2026-05-08 18:28 55.48698 -4.57270 16134 ft 307 kts 216°
2026-05-08 18:28 55.46940 -4.59417 16136 ft 307 kts 216°
2026-05-08 18:28 55.45186 -4.61560 16139 ft 307 kts 216°
2026-05-08 18:29 55.43429 -4.63705 16129 ft 307 kts 216°
2026-05-08 18:29 55.41675 -4.65848 16138 ft 307 kts 216°
2026-05-08 18:29 55.39922 -4.67987 16153 ft 307 kts 216°
2026-05-08 18:29 55.38169 -4.70116 16160 ft 306 kts 216°
2026-05-08 18:30 55.36412 -4.72239 16166 ft 306 kts 216°
2026-05-08 18:30 55.34659 -4.74357 16164 ft 306 kts 216°
2026-05-08 18:30 55.32908 -4.76479 16165 ft 306 kts 216°
2026-05-08 18:30 55.31139 -4.78546 16163 ft 306 kts 211°
2026-05-08 18:31 55.29240 -4.80249 16165 ft 307 kts 208°
2026-05-08 18:31 55.27334 -4.81924 16159 ft 307 kts 208°
2026-05-08 18:31 55.25425 -4.83601 16161 ft 307 kts 208°
2026-05-08 18:31 55.23520 -4.85270 16160 ft 306 kts 208°
2026-05-08 18:32 55.21614 -4.86939 16160 ft 306 kts 208°
2026-05-08 18:32 55.19706 -4.88615 16163 ft 306 kts 208°
2026-05-08 18:32 55.17806 -4.90287 16159 ft 306 kts 208°
2026-05-08 18:32 55.15901 -4.91957 16140 ft 306 kts 208°
2026-05-08 18:33 55.13994 -4.93623 16144 ft 306 kts 208°
2026-05-08 18:33 55.12088 -4.95284 16154 ft 306 kts 208°
2026-05-08 18:33 55.10179 -4.96945 16151 ft 306 kts 208°
2026-05-08 18:33 55.08272 -4.98607 16150 ft 307 kts 208°
2026-05-08 18:34 55.06363 -5.00267 16153 ft 307 kts 208°
2026-05-08 18:34 55.04451 -5.01931 16153 ft 307 kts 208°
2026-05-08 18:34 55.02542 -5.03592 16152 ft 307 kts 208°
2026-05-08 18:34 55.00631 -5.05255 16158 ft 307 kts 208°
2026-05-08 18:35 54.98721 -5.06916 16162 ft 307 kts 208°
2026-05-08 18:35 54.96835 -5.08549 16152 ft 307 kts 208°
2026-05-08 18:35 54.94920 -5.10202 16162 ft 307 kts 208°
2026-05-08 18:35 54.93009 -5.11851 16160 ft 307 kts 208°
2026-05-08 18:36 54.91098 -5.13518 16161 ft 307 kts 211°
2026-05-08 18:36 54.89380 -5.15680 16148 ft 305 kts 224°
2026-05-08 18:36 54.88029 -5.18514 16142 ft 306 kts 237°
2026-05-08 18:36 54.87120 -5.21845 16138 ft 307 kts 249°
2026-05-08 18:37 54.86430 -5.25318 15912 ft 301 kts 249°
2026-05-08 18:37 54.85745 -5.28720 15658 ft 296 kts 249°
2026-05-08 18:37 54.85067 -5.32062 15405 ft 292 kts 249°
2026-05-08 18:37 54.84391 -5.35373 15153 ft 290 kts 249°
2026-05-08 18:38 54.83717 -5.38665 14904 ft 289 kts 249°
2026-05-08 18:38 54.83047 -5.41933 14682 ft 285 kts 249°
2026-05-08 18:38 54.82384 -5.45155 14386 ft 283 kts 249°
2026-05-08 18:38 54.81935 -5.47326 14160 ft 283 kts 249°
2026-05-08 18:39 54.81059 -5.51574 13692 ft 282 kts 249°
2026-05-08 18:39 54.80401 -5.54769 13330 ft 281 kts 249°
2026-05-08 18:39 54.79958 -5.56922 13070 ft 280 kts 249°
2026-05-08 18:39 54.78792 -5.60867 12601 ft 278 kts 232°
2026-05-08 18:40 54.77432 -5.63226 12230 ft 277 kts 218°
2026-05-08 18:40 54.76401 -5.64602 11981 ft 277 kts 218°
2026-05-08 18:40 54.74884 -5.66652 11623 ft 276 kts 219°
2026-05-08 18:40 54.73381 -5.68701 11251 ft 276 kts 219°
2026-05-08 18:41 54.71877 -5.70759 10879 ft 275 kts 219°
2026-05-08 18:41 54.70383 -5.72802 10499 ft 275 kts 219°
2026-05-08 18:41 54.68886 -5.74845 10123 ft 275 kts 219°
2026-05-08 18:41 54.67381 -5.76897 9715 ft 275 kts 219°
2026-05-08 18:42 54.65883 -5.78935 9310 ft 273 kts 219°
2026-05-08 18:42 54.64395 -5.80955 8934 ft 271 kts 219°
2026-05-08 18:42 54.62916 -5.82958 8520 ft 271 kts 219°
2026-05-08 18:42 54.61434 -5.84961 8102 ft 270 kts 219°
2026-05-08 18:43 54.59957 -5.86963 7691 ft 270 kts 218°
2026-05-08 18:43 54.58484 -5.88958 7274 ft 270 kts 218°
2026-05-08 18:43 54.57006 -5.90955 6853 ft 270 kts 218°
2026-05-08 18:43 54.55531 -5.92947 6421 ft 270 kts 218°
2026-05-08 18:44 54.54055 -5.94942 5967 ft 270 kts 218°
2026-05-08 18:44 54.52577 -5.96935 5536 ft 270 kts 218°
2026-05-08 18:44 54.51100 -5.98918 5096 ft 270 kts 218°
2026-05-08 18:44 54.49618 -6.00905 4638 ft 270 kts 218°
2026-05-08 18:45 54.48144 -6.02883 4344 ft 265 kts 219°
2026-05-08 18:45 54.46724 -6.04783 4218 ft 253 kts 218°
2026-05-08 18:45 54.45370 -6.06594 4108 ft 241 kts 219°
2026-05-08 18:45 54.44082 -6.08318 4007 ft 229 kts 219°
2026-05-08 18:46 54.42834 -6.09989 3907 ft 226 kts 219°
2026-05-08 18:46 54.41613 -6.11633 3843 ft 219 kts 219°
2026-05-08 18:46 54.40459 -6.13197 3787 ft 210 kts 220°
2026-05-08 18:46 54.39334 -6.14725 3738 ft 208 kts 220°
2026-05-08 18:47 54.38324 -6.16443 3698 ft 196 kts 243°
2026-05-08 18:47 54.38040 -6.18560 3653 ft 174 kts 279°
2026-05-08 18:47 54.38414 -6.20388 3607 ft 154 kts 309°
2026-05-08 18:47 54.39167 -6.21551 3581 ft 143 kts 335°
2026-05-08 18:48 54.40099 -6.21979 3562 ft 135 kts 359°
2026-05-08 18:48 54.41014 -6.21695 3531 ft 134 kts 22°
2026-05-08 18:48 54.41776 -6.20770 3501 ft 136 kts 46°
2026-05-08 18:48 54.42254 -6.19382 3478 ft 137 kts 62°
2026-05-08 18:49 54.42640 -6.17891 3445 ft 136 kts 62°
2026-05-08 18:49 54.43024 -6.16422 3415 ft 135 kts 62°
2026-05-08 18:49 54.43412 -6.14943 3382 ft 136 kts 62°
2026-05-08 18:49 54.43798 -6.13465 3345 ft 136 kts 63°
2026-05-08 18:50 54.44184 -6.11985 3316 ft 135 kts 62°
2026-05-08 18:50 54.44569 -6.10512 3293 ft 135 kts 62°
2026-05-08 18:50 54.44954 -6.09042 3255 ft 135 kts 62°
2026-05-08 18:50 54.45338 -6.07575 3227 ft 134 kts 61°
2026-05-08 18:51 54.45868 -6.06285 3199 ft 132 kts 41°
2026-05-08 18:51 54.46597 -6.05346 3165 ft 132 kts 33°
2026-05-08 18:51 54.47355 -6.04451 3163 ft 132 kts 33°
2026-05-08 18:51 54.48112 -6.03558 3118 ft 132 kts 33°
2026-05-08 18:52 54.48872 -6.02659 2994 ft 133 kts 32°
2026-05-08 18:52 54.49629 -6.01761 2844 ft 132 kts 33°
2026-05-08 18:52 54.50380 -6.00871 2674 ft 130 kts 32°
2026-05-08 18:52 54.51127 -5.99984 2501 ft 131 kts 33°
2026-05-08 18:53 54.51870 -5.99101 2322 ft 129 kts 33°
2026-05-08 18:53 54.52610 -5.98222 2143 ft 129 kts 32°
2026-05-08 18:53 54.53347 -5.97345 1961 ft 128 kts 32°
2026-05-08 18:53 54.54082 -5.96471 1787 ft 129 kts 32°
2026-05-08 18:54 54.54818 -5.95595 1612 ft 128 kts 33°
2026-05-08 18:54 54.55548 -5.94718 1442 ft 128 kts 33°
2026-05-08 18:54 54.56273 -5.93830 1303 ft 128 kts 32°
2026-05-08 18:54 54.57013 -5.92976 1095 ft 128 kts 32°
2026-05-08 18:55 54.58482 -5.91251 743 ft 129 kts 33°
2026-05-08 18:55 54.59211 -5.90359 506 ft 131 kts 35°
2026-05-08 18:55 54.59945 -5.89482 353 ft 126 kts 32°
2026-05-08 18:56 54.60674 -5.88621 182 ft 128 kts 33°
2026-05-08 18:56 54.61396 -5.87743 35 ft 126 kts 33°
2026-05-08 18:56 54.62054 -5.86961 62 ft 116 kts 34°
2026-05-08 18:56 54.62791 -5.86107 634 ft 135 kts 33°
2026-05-08 18:57 54.63592 -5.85188 1297 ft 148 kts 32°
2026-05-08 18:57 54.64198 -5.84465 1647 ft 165 kts 32°
2026-05-08 18:57 54.65602 -5.82784 2004 ft 212 kts 33°
2026-05-08 18:57 54.66804 -5.81356 1995 ft 203 kts 33°
2026-05-08 18:58 54.67932 -5.80019 2154 ft 195 kts 32°
2026-05-08 18:58 54.69059 -5.78678 2418 ft 198 kts 33°
2026-05-08 18:58 54.70202 -5.77324 2672 ft 201 kts 32°
2026-05-08 18:58 54.71357 -5.75947 2913 ft 202 kts 33°
2026-05-08 18:59 54.72517 -5.74570 2998 ft 202 kts 32°
2026-05-08 18:59 54.73669 -5.73196 3009 ft 202 kts 32°
2026-05-08 18:59 54.74817 -5.71793 3006 ft 203 kts 39°
2026-05-08 18:59 54.75494 -5.69691 3008 ft 208 kts 82°
2026-05-08 19:00 54.75104 -5.67284 3009 ft 218 kts 126°
2026-05-08 19:00 54.73811 -5.65922 3012 ft 225 kts 171°
2026-05-08 19:00 54.72297 -5.66405 3014 ft 225 kts 215°
2026-05-08 19:00 54.71264 -5.68368 3018 ft 222 kts 239°
2026-05-08 19:01 54.70416 -5.70605 3014 ft 223 kts 240°
2026-05-08 19:01 54.69566 -5.72844 3010 ft 222 kts 240°
2026-05-08 19:01 54.68720 -5.75083 3011 ft 222 kts 239°
2026-05-08 19:01 54.67875 -5.77316 3010 ft 223 kts 239°
2026-05-08 19:02 54.67024 -5.79548 3010 ft 223 kts 237°
2026-05-08 19:02 54.65954 -5.81511 3009 ft 226 kts 226°
2026-05-08 19:02 54.64797 -5.83352 3008 ft 226 kts 223°
2026-05-08 19:02 54.63614 -5.85127 3010 ft 225 kts 223°
2026-05-08 19:03 54.62433 -5.86901 3011 ft 224 kts 222°
2026-05-08 19:03 54.61170 -5.88420 3011 ft 225 kts 214°
2026-05-08 19:03 54.59862 -5.89914 3011 ft 226 kts 215°
2026-05-08 19:03 54.58546 -5.91454 3011 ft 226 kts 215°
2026-05-08 19:04 54.57267 -5.92963 3010 ft 226 kts 216°
2026-05-08 19:04 54.55972 -5.94494 3010 ft 226 kts 216°
2026-05-08 19:04 54.54678 -5.96025 3010 ft 226 kts 216°
2026-05-08 19:04 54.53385 -5.97555 3010 ft 225 kts 216°
2026-05-08 19:05 54.52094 -5.99084 3012 ft 225 kts 215°
2026-05-08 19:05 54.50802 -6.00612 3012 ft 225 kts 216°
2026-05-08 19:05 54.49514 -6.02134 3011 ft 225 kts 216°
2026-05-08 19:05 54.48223 -6.03658 3011 ft 224 kts 216°
2026-05-08 19:06 54.46934 -6.05177 3011 ft 225 kts 216°
2026-05-08 19:06 54.45645 -6.06696 3012 ft 225 kts 216°
2026-05-08 19:06 54.44355 -6.08219 3012 ft 225 kts 216°
2026-05-08 19:06 54.43064 -6.09744 3011 ft 225 kts 216°
2026-05-08 19:07 54.41764 -6.11208 3010 ft 225 kts 206°
2026-05-08 19:07 54.40249 -6.11818 3013 ft 225 kts 177°
2026-05-08 19:07 54.38757 -6.11127 3010 ft 223 kts 147°
2026-05-08 19:07 54.37655 -6.09342 3009 ft 218 kts 118°
2026-05-08 19:08 54.37176 -6.06944 3009 ft 212 kts 90°
2026-05-08 19:08 54.37477 -6.04558 3009 ft 204 kts 54°
2026-05-08 19:08 54.38525 -6.03021 3010 ft 201 kts 19°
2026-05-08 19:08 54.39901 -6.02848 3015 ft 201 kts 353°
2026-05-08 19:09 54.41274 -6.03339 3012 ft 202 kts 345°
2026-05-08 19:09 54.42634 -6.04027 3014 ft 204 kts 345°
2026-05-08 19:09 54.43991 -6.04738 3014 ft 204 kts 344°
2026-05-08 19:09 54.45365 -6.05300 3008 ft 202 kts 358°
2026-05-08 19:10 54.46747 -6.04965 3012 ft 202 kts 20°
2026-05-08 19:10 54.47962 -6.03756 3014 ft 203 kts 34°
2026-05-08 19:10 54.49107 -6.02385 2916 ft 196 kts 33°
2026-05-08 19:10 54.50202 -6.01082 2708 ft 187 kts 33°
2026-05-08 19:11 54.51215 -5.99878 2482 ft 168 kts 33°
2026-05-08 19:11 54.52128 -5.98792 2280 ft 150 kts 33°
2026-05-08 19:11 54.52938 -5.97829 2061 ft 136 kts 32°
2026-05-08 19:11 54.53696 -5.96928 1875 ft 131 kts 32°
2026-05-08 19:12 54.54441 -5.96043 1695 ft 128 kts 32°
2026-05-08 19:12 54.55173 -5.95171 1512 ft 128 kts 32°
2026-05-08 19:12 54.55903 -5.94302 1339 ft 127 kts 33°
2026-05-08 19:12 54.56632 -5.93431 1139 ft 127 kts 33°
2026-05-08 19:13 54.57355 -5.92554 948 ft 127 kts 32°
2026-05-08 19:13 54.58082 -5.91698 817 ft 126 kts 32°
2026-05-08 19:13 54.58813 -5.90840 664 ft 129 kts 34°
2026-05-08 19:13 54.59546 -5.89948 404 ft 127 kts 35°
2026-05-08 19:14 54.60271 -5.89096 272 ft 127 kts 33°
2026-05-08 19:14 54.60994 -5.88232 106 ft 126 kts 33°
2026-05-08 19:14 54.61697 -5.87392 23 ft 114 kts 34°
2026-05-08 19:14 54.62158 -5.86835 17 ft 39 kts 36°
2026-05-08 19:15 54.62346 -5.86603 21 ft 31 kts 34°
2026-05-08 19:15 54.62437 -5.86434 21 ft 12 kts 25°
2026-05-08 19:15 54.62468 -5.86516 22 ft 10 kts 218°
2026-05-08 19:15 54.62405 -5.86546 23 ft 8 kts 199°
2026-05-08 19:16 54.62358 -5.86597 22 ft 8 kts 215°
2026-05-08 19:16 54.62306 -5.86659 20 ft 9 kts 215°
2026-05-08 19:16 54.62249 -5.86728 21 ft 10 kts 215°
2026-05-08 19:16 54.62193 -5.86797 19 ft 11 kts 215°
2026-05-08 19:17 54.62124 -5.86877 17 ft 14 kts 213°
2026-05-08 19:17 54.61997 -5.87022 16 ft 26 kts 214°
2026-05-08 19:17 54.61860 -5.87176 19 ft 15 kts 187°
2026-05-08 19:17 54.61794 -5.87074 19 ft 11 kts 124°
2026-05-08 19:18 54.61754 -5.86995 21 ft 8 kts 156°
2026-05-08 19:18 54.61700 -5.87022 23 ft 11 kts 216°
2026-05-08 19:18 54.61642 -5.87093 21 ft 10 kts 216°
2026-05-08 19:18 54.61588 -5.87156 21 ft 9 kts 212°
2026-05-08 19:19 54.61533 -5.87170 21 ft 8 kts 157°
2026-05-08 19:19 54.61501 -5.87146 23 ft 4 kts 156°
2026-05-08 19:19 54.61499 -5.87145 23 ft 0 kts 156°